User: anonymous   Login
Location: Unspecified
(0.0000°N, 0.0000°E)
Time: 17:03:16
(UTC+00:00)
Language:

NADEZHDA 7 - Orbit

View from above orbital plane
View from above orbital plane
View from above satellite
View from above satellite

Ground track
Ground track

The orbit data is extracted from the following two-line orbital elements,

1 27534U 02046A   18174.87737795  .00000045  00000-0  32105-4 0  9991
2 27534  82.9350 324.5334 0036965 151.6455   0.6734 13.72700285788671
Epoch (UTC): 23 June 2018 21:03:25
Eccentricity: 0.0036965
inclination: 82.9350°
perigee height: 962 km
apogee height: 1017 km
right ascension of ascending node: 324.5334°
argument of perigee: 151.6455°
revolutions per day: 13.72700285
mean anomaly at epoch: 0.6734°
orbit number at epoch: 78867

The dashed part of the orbit path shows where the satellite is in the earth's shadow,  

DLR